• MPC Preparation (Info)

  • MPEC 2016-C102: 2016 CL32

    The following Minor Planet Electronic Circular may be linked-to from your own Web pages, but must not otherwise be redistributed electronically.

    A form allowing access to any MPEC is at the bottom of this page.


    Read MPEC 2016-C101 Read MPEC 2016-C103


    M.P.E.C. 2016-C102                               Issued 2016 Feb.  9, 03:42 UT
    
         The Minor Planet Electronic Circulars contain information on unusual
             minor planets and routine data on comets.  They are published
        on behalf of Division F of the International Astronomical Union by the
              Minor Planet Center, Smithsonian Astrophysical Observatory,
                              Cambridge, MA 02138, U.S.A.
    
                 Prepared using the Tamkin Foundation Computer Network
    
                                  MPC@CFA.HARVARD.EDU
                URL https://www.minorplanetcenter.net/    ISSN 1523-6714
    
                                       2016 CL32
    
    Observations:
         K16C32L* C2016 02 06.12792 02 20 30.62 +09 03 44.0          19.5 VqEC102703
         K16C32L  C2016 02 06.13087 02 20 31.74 +09 03 56.2          19.8 VqEC102703
         K16C32L  C2016 02 06.13383 02 20 33.04 +09 04 09.7          19.4 VqEC102703
         K16C32L  C2016 02 06.13678 02 20 34.23 +09 04 23.0          20.1 VqEC102703
         K16C32L  C2016 02 06.16251 02 20 44.68 +09 06 16.6          19.6 VqEC102703
         K16C32L HC2016 02 06.16403 02 20 45.34 +09 06 23.5                oEC102691
         K16C32L  C2016 02 06.16523 02 20 45.84 +09 06 28.1          19.4 VqEC102703
         K16C32L HC2016 02 06.16628 02 20 46.41 +09 06 34.6                oEC102691
         K16C32L  C2016 02 06.16797 02 20 46.89 +09 06 41.2          20.2 VqEC102703
         K16C32L HC2016 02 06.16854 02 20 47.19 +09 06 42.7                oEC102691
         K16C32L  C2016 02 06.17071 02 20 48.11 +09 06 52.5          20.3 VqEC102703
         K16C32L KC2016 02 06.86268702 25 36.717+09 58 18.87         19.4 RqEC102J04
         K16C32L KC2016 02 06.86515002 25 37.729+09 58 30.04         19.4 RqEC102J04
         K16C32L KC2016 02 06.86761502 25 38.751+09 58 40.89         19.4 RqEC102J04
         K16C32L KC2016 02 07.04640 02 26 54.05 +10 11 52.5          19.6 RqEC102H36
         K16C32L KC2016 02 07.05782 02 26 58.70 +10 12 43.0          18.9 RqEC102H36
         K16C32L KC2016 02 07.06690 02 27 02.51 +10 13 24.1          19.2 RqEC102H36
         K16C32L  C2016 02 07.06805102 27 03.08 +10 13 30.2          19.7 VtEC102H01
         K16C32L  C2016 02 07.07540702 27 06.10 +10 14 02.9          19.8 VtEC102H01
         K16C32L  C2016 02 07.08177302 27 08.72 +10 14 31.2          19.9 VtEC102H01
         K16C32L  C2016 02 07.08859902 27 11.53 +10 15 01.4          19.9 VtEC102H01
         K16C32L KC2016 02 07.10149 02 27 16.90 +10 15 59.3                oEC102291
         K16C32L KC2016 02 07.10245 02 27 17.28 +10 16 04.1                oEC102291
         K16C32L KC2016 02 07.10341 02 27 17.68 +10 16 08.0                oEC102291
         K16C32L  C2016 02 07.14694 02 27 35.61 +10 19 20.2          20.4 VqEC102I52
         K16C32L  C2016 02 07.14775 02 27 35.92 +10 19 24.8          21.1 VqEC102I52
         K16C32L  C2016 02 08.22321802 35 08.76 +11 38 38.8          19.6 VtEC102H01
         K16C32L  C2016 02 08.22872602 35 11.08 +11 39 03.0          19.6 VtEC102H01
         K16C32L  C2016 02 08.23524502 35 13.82 +11 39 32.1          19.7 VtEC102H01
         K16C32L  C2016 02 08.24416602 35 17.58 +11 40 10.5          19.9 VtEC102H01
         K16C32L  C2016 02 09.09057 02 41 18.19 +12 42 04.0          19.7 VqEC102I52
         K16C32L  C2016 02 09.09156 02 41 18.60 +12 42 08.7          20.0 VqEC102I52
         K16C32L  C2016 02 09.09248 02 41 19.01 +12 42 12.8          20.1 VqEC102I52
    
    Observer details:
    291 LPL/Spacewatch II.  Observer M. T. Read.  1.8-m f/2.7 reflector + CCD.
    691 Steward Observatory, Kitt Peak.  Observer M. T. Read.  0.9-m f/3 reflector
        + CCD.
    703 Catalina Sky Survey.  Observer R. G. Matheny.  Measurers E. J. Christensen,
        D. C. Fuls, A. R. Gibbs, A. D. Grauer, J. A. Johnson, R. A. Kowalski,
        S. M. Larson, G. J. Leonard, R. G. Matheny, R. L. Seaman, F. C. Shelly.
        0.68-m Schmidt + CCD.
    H01 Magdalena Ridge Observatory, Socorro.  Observers W. H. Ryan, E. V. Ryan.
        Measurer W. H. Ryan.  2.4-m f/8.9 reflector + CCD.
    H36 Sandlot Observatory, Scranton.  Observer G. Hug.  0.56-m reflector + CCD.
    I52 Steward Observatory, Mt. Lemmon Station.  Observers A. R. Gibbs,
        R. A. Kowalski.  Measurers E. J. Christensen, D. C. Fuls, A. R. Gibbs,
        A. D. Grauer, J. A. Johnson, R. A. Kowalski, S. M. Larson, G. J. Leonard,
        R. G. Matheny, R. L. Seaman, F. C. Shelly.  1.0-m reflector + CCD.
    J04 ESA Optical Ground Station, Tenerife.  Observer P. Ruiz.  Measurers
        M. Micheli, D. Koschny, A. Knoefel, E. Schwab, M. Busch.  1.0-m f/4.4
        reflector + CCD.
    
    Orbital elements:
    2016 CL32                                           PHA, Earth MOID = 0.0263 AU
    Epoch 2016 Jan. 13.0 TT = JDT 2457400.5                 MPC
    M   8.58325              (2000.0)            P               Q
    n   0.48827399     Peri.  293.67110     +0.52909839     -0.82920425
    a   1.5972038      Node   123.16238     +0.83565848     +0.47227560
    e   0.4771440      Incl.   12.43145     +0.14741029     +0.29895830
    P   2.02           H   19.3           G   0.15           U   8
    Residuals in seconds of arc
    160206 703  0.4+  1.1+    160206 J04  0.0   0.1-    160207 291  0.4-  0.4+
    160206 703  0.8-  0.2+    160206 J04  0.0   0.1+    160207 291  0.3-  0.0
    160206 703  0.6+  0.5+    160206 J04  0.1+  0.0     160207 I52  0.2-  0.4-
    160206 703  0.3+  0.7+    160207 H36  1.4+  0.3+    160207 I52  0.5-  0.6+
    160206 703  0.7-  0.2-    160207 H36  0.7+  0.1+    160208 H01  0.0   0.3-
    160206 691  0.3-  0.3-    160207 H36  1.7+  1.0+    160208 H01  0.0   0.2-
    160206 703  0.0   0.8-    160207 H01  0.0   0.1-    160208 H01  0.0   0.4+
    160206 691  1.9+  0.8+    160207 H01  0.0   0.0     160208 H01  0.1-  0.3-
    160206 703  1.1-  0.1+    160207 H01  0.0   0.0     160209 I52  0.2+  0.3-
    160206 691  0.2-  1.1-    160207 H01  0.0   0.0     160209 I52  0.1+  0.1+
    160206 703  0.3+  0.8-    160207 291  0.2-  0.2-    160209 I52  0.5+  0.2+
    
    Ephemeris:
    2016 CL32                a,e,i = 1.60, 0.48, 12                  q = 0.8351
    Date    TT    R. A. (2000) Decl.     Delta      r     Elong.  Phase     V
    2016 01 10    23 41 29.8 -18 23 19   0.4927  0.8562    60.5    89.4    20.6
    ...
    2016 01 25    01 02 27.6 -05 20 43   0.3975  0.9166    68.5    87.7    20.2
    ...
    2016 02 02    01 52 35.9 +03 57 07   0.3699  0.9609    75.3    82.8    19.9
    ...
    2016 02 08    02 33 35.3 +11 22 24   0.3639  0.9981    81.3    77.6    19.8
    2016 02 09    02 40 39.7 +12 35 34   0.3643  1.0045    82.3    76.7    19.8
    2016 02 10    02 47 47.5 +13 47 52   0.3650  1.0111    83.3    75.7    19.8
    ...
    2016 02 16    03 31 25.0 +20 32 25   0.3774  1.0515    89.0    69.9    19.7
    ...
    2016 02 24    04 29 40.6 +27 34 29   0.4139  1.1078    95.4    62.8    19.8
    ...
    2016 03 10    06 07 31.3 +34 08 06   0.5305  1.2175   101.7    53.0    20.3
    
    A. U. Tomatic                (C) Copyright 2016 MPC           M.P.E.C. 2016-C102
    

    Read MPEC 2016-C101 Read MPEC 2016-C103


    MPEC number:

    Enter an MPEC number in one of the following forms:

    • 1997-B01 (the full form)
    • J97B01 (the packed version of the full form)
    • B01 (the abbreviated form)